Regional Weather Roundup
Issued by NWS State College, PA

Home | Current Version | Previous Version | Text Only | Print | Product List | Glossary On
Versions: 1 2 3 4 5 6 7 8 9 10 11 12 13 14 15 16 17 18 19 20 21 22 23 24 25 26 27 28 29 30 31 32 33 34 35 36 37 38 39 40 41 42 43 44 45 46 47 48 49 50
000
ASUS41 KCTP 190210
RWRCTP

REGIONAL WEATHER ROUNDUP
NATIONAL WEATHER SERVICE STATE COLLEGE PA
900 PM EST WED JAN 18 2017

Note: "fair" indicates few or no clouds below 12,000 feet with no
significant weather and/or obstructions to visibility.

* = STATION THAT DOES NOT REPORT PRECIPITATION /E.G. RAIN...SNOW...ETC/
    THUNDER OR FOG.

PAZ002>004-007>009-013>016-020>023-029>032-190300-
WESTERN PENNSYLVANIA

CITY           SKY/WX    TMP DP  RH WIND       PRES   REMARKS
ERIE           CLOUDY    38  36  92 SW8       30.05S FOG
MEADVILLE      CLOUDY    36  34  92 SW8       30.04R
FRANKLIN*        N/A     36  32  87 SW8       30.05S
NEW CASTLE     CLOUDY    37  36  96 SW5       30.08F
BEAVER COUNTY  NOT AVBL
BUTLER*        CLOUDY    37  34  87 SW7       30.10F
PITTSBURGH INT CLOUDY    39  36  89 SW7       30.08F
PITTSBURGH     CLOUDY    38  33  82 SW7       30.08F
INDIANA*       CLOUDY    37  37 100 W6        30.10S FOG
LATROBE        CLOUDY    37  37 100 SW7       30.10F
WASHINGTON CO* CLOUDY    37  36  93 SW3       30.11S
$$

PAZ004>006-010>012-017>019-024>028-033>037-041-042-045-046-049>053-190300-
CENTRAL PENNSYLVANIA

CITY           SKY/WX    TMP DP  RH WIND       PRES   REMARKS
BRADFORD       CLOUDY    33  33 100 W8        30.00S
DUBOIS         CLOUDY    35  33  92 SW10      30.02F FOG
CLEARFIELD     CLOUDY    36  36 100 SW5       30.04F
JOHNSTOWN      CLOUDY    34  34 100 W8        30.03S FOG
ALTOONA        CLOUDY    39  35  86 W6        30.07R
STATE COLLEGE  CLOUDY    37  34  87 W8        30.05F
WILLIAMSPORT   CLOUDY    42  35  76 W6        30.04S
SELINSGROVE    CLOUDY    39  38  96 CALM      30.06S
FT INDIANTOWN  CLOUDY    44  38  79 W6        30.05R
CAPITAL CITY   CLOUDY    46  35  65 CALM      30.06S
HARRISBURG     CLOUDY    45  37  73 NW8       30.06R
YORK           CLOUDY    44  38  79 W3        30.06S
$$

PAZ038>040-043-044-047-048-054-055-060>062-067>071-190300-
EASTERN PENNSYLVANIA

CITY           SKY/WX    TMP DP  RH WIND       PRES   REMARKS
SCRANTON       CLOUDY    38  38 100 CALM      30.01S FOG
MOUNT POCONO   CLOUDY    34  34 100 NW5       29.97F FOG
ALLENTOWN      CLOUDY    43  37  79 CALM      30.03S
QUAKERTOWN*    CLOUDY    39  39 100 CALM      30.04R
READING        CLOUDY    45  37  73 W3        30.04R
LANCASTER      CLOUDY    46  39  76 NW6       30.06R
COATESVILLE      N/A     45  39  81 NW5       30.06R
POTTSTOWN      CLOUDY    43  39  86 CALM      30.05S
BLUE BELL      CLOUDY    41  37  87 CALM      30.03S
DOYLESTOWN     CLOUDY    42  39  89 N3        30.02F
WILLOW GROVE   NOT AVBL
NORTH PHILA    CLOUDY    43  38  82 N3        30.05S
PHILADELPHIA   CLOUDY    46  39  76 N3        30.05R
$$




USA.gov is the U.S. government's official web portal to all federal, state and local government web resources and services.